Theta_e
315 319 326 328 328 328 332 330 330 333 331 333 333 330 330 331 333 335 332 331 331 328 327 326 325 324 322 322 323 322 321 319 317 317 314 310 318 308 304 304 303 304 304 304 303 304 304 306 322
318 322 327 327 329 332 328 325 328 330 332 335 334 332 331 331 329 330 330 329 329 327 326 325 324 322 322 322 321 319 319 319 316 318 316 308 315 312 304 303 303 303 303 303 303 304 305 305 308
320 326 329 322 327 330 326 326 326 330 333 333 332 331 332 332 330 331 329 328 328 326 325 324 322 322 321 319 319 317 315 316 315 315 317 311 317 316 303 303 302 302 302 303 303 304 306 308 308
322 326 327 324 325 323 324 326 326 329 335 334 332 331 331 331 329 328 328 328 327 325 324 323 322 320 319 318 317 316 315 313 312 310 307 304 313 310 303 302 302 302 302 302 303 304 304 305 306
326 326 320 324 325 324 323 325 331 330 332 331 331 330 331 329 327 328 327 326 325 324 323 321 320 319 318 313 308 312 308 309 308 304 302 302 302 302 302 301 301 301 301 302 303 304 306 307 309
325 324 320 321 321 322 322 330 329 329 331 331 329 329 328 329 327 328 328 326 324 323 322 322 321 320 316 311 304 303 303 303 303 302 302 301 301 301 301 301 301 301 301 301 302 303 305 307 310
321 317 319 320 321 322 324 330 331 332 333 332 332 329 329 329 327 327 326 325 324 324 324 323 321 320 318 317 312 309 301 302 301 301 301 301 301 301 302 302 302 301 301 301 301 301 303 305 309
322 319 320 318 319 321 329 330 331 331 331 333 330 327 329 329 327 326 326 325 327 326 325 323 322 321 319 318 318 312 309 304 302 301 301 301 305 308 308 305 303 303 302 302 302 301 301 302 305
323 315 316 318 320 322 328 329 330 330 330 330 330 329 328 327 326 325 325 327 327 326 324 324 323 321 319 320 318 317 316 315 314 308 302 312 313 312 312 310 304 303 303 303 302 302 302 303 301
317 314 318 317 321 327 328 329 330 330 329 328 328 327 327 326 326 325 325 326 325 323 323 324 322 321 319 320 319 318 317 315 316 315 312 309 314 314 313 312 308 308 304 305 304 305 307 308 307
319 315 319 319 326 326 327 329 331 330 329 328 328 327 326 327 326 328 327 327 325 324 323 323 322 321 320 321 319 318 318 315 315 315 314 310 313 313 312 311 312 312 312 309 309 310 311 309 309
319 321 321 322 325 326 326 328 328 329 328 327 327 327 327 327 327 328 327 325 325 325 324 323 323 322 322 320 319 318 317 314 314 313 313 312 310 312 311 311 312 313 313 313 312 312 312 312 310
318 320 322 326 326 326 325 326 327 327 328 328 327 326 327 328 327 327 326 326 325 325 325 324 324 324 322 321 318 318 318 315 314 313 312 311 311 309 313 314 313 313 313 313 313 313 312 312 312
321 322 323 325 325 325 326 326 326 327 327 327 327 328 327 326 326 325 326 326 324 323 325 322 322 320 321 321 320 318 316 315 316 317 313 312 313 313 312 312 313 313 313 312 313 313 313 313 313
321 320 320 323 325 325 326 325 326 327 328 328 328 327 326 325 327 327 325 320 320 322 324 323 318 313 313 312 312 316 317 317 317 317 315 316 315 314 313 313 312 313 315 314 313 314 314 313 313
319 319 320 320 322 324 324 327 326 327 328 327 326 326 325 321 321 320 317 317 322 316 315 314 315 316 315 314 312 312 314 314 314 312 313 314 314 314 313 313 313 312 312 313 311 312 313 314 313
318 318 319 321 322 322 321 325 325 327 326 326 324 323 322 320 318 314 314 313 314 314 314 314 315 316 314 314 314 314 315 315 315 314 313 313 313 313 314 314 312 313 312 312 312 311 312 312 314
318 317 317 321 319 320 320 324 323 325 324 323 322 322 319 317 315 315 314 314 315 314 314 314 314 314 314 315 315 316 316 316 315 315 316 315 315 314 315 314 315 314 313 314 313 312 311 312 313
317 317 323 322 322 321 323 322 321 321 321 320 319 318 316 315 315 315 315 315 314 312 313 313 315 312 310 309 308 307 307 307 307 308 308 308 310 312 312 313 314 313 312 312 312 312 313 312 313
320 320 324 322 321 320 322 322 319 319 320 320 319 317 315 315 315 313 312 312 312 312 312 312 312 311 310 309 307 306 306 306 306 306 306 306 306 306 306 306 307 308 309 311 312 312 312 311 312
319 320 321 322 320 319 318 319 319 318 319 319 317 317 316 314 312 312 311 311 310 309 308 308 308 307 307 306 306 305 305 305 305 305 305 305 305 305 305 305 304 304 304 304 305 307 307 307 308
320 319 319 321 320 320 316 321 320 318 317 317 317 316 314 312 312 311 310 309 308 308 308 307 307 306 305 304 304 305 307 307 307 306 305 305 305 305 305 304 304 303 303 303 303 303 304 304 304
319 318 317 317 318 318 318 320 320 319 318 317 316 317 312 312 311 309 308 308 308 308 307 306 306 305 304 305 306 306 306 306 305 305 304 304 304 304 304 303 302 302 302 302 302 302 302 303 303
317 317 317 317 316 318 319 320 321 321 320 319 318 313 312 311 310 309 309 308 308 307 306 305 305 304 305 306 306 306 303 302 302 302 302 302 302 302 302 302 301 300 299 299 300 300 300 301 301
317 317 317 318 318 317 322 323 322 322 320 319 313 312 312 310 310 309 308 307 307 306 305 304 304 304 305 306 303 300 298 298 298 297 297 296 295 294 293 293 293 293 293 293 293 294 293 296 298
317 317 317 321 321 319 324 324 320 316 314 313 312 312 311 310 309 308 307 306 305 304 304 304 304 305 305 305 301 299 296 296 296 296 295 294 292 292 293 293 293 293 292 292 291 292 292 293 295
319 318 318 319 321 320 324 322 320 316 314 313 312 312 311 310 308 307 306 305 304 304 303 304 305 305 305 303 301 297 296 296 296 295 293 292 292 292 291 292 292 292 291 291 291 292 292 292 292
318 317 318 318 312 317 320 322 320 317 314 314 312 312 311 309 308 306 305 304 303 303 303 304 305 305 304 303 300 297 296 295 294 294 293 293 291 291 291 291 291 292 291 291 291 290 290 290 290
317 316 318 317 316 314 315 318 319 318 317 313 312 312 310 308 306 305 304 303 303 303 304 305 305 304 303 301 298 296 295 295 294 294 294 293 292 291 290 290 291 291 291 291 291 291 290 290 290
318 318 317 309 315 311 313 319 316 315 313 312 313 310 308 306 305 305 304 303 302 303 304 304 304 303 302 300 297 296 296 295 295 295 294 293 292 292 290 290 290 289 289 289 289 290 290 290 289
Wind_Speed
11 8 9 8 3 2 5 7 2 10 8 26 30 24 18 18 7 9 10 5 7 8 6 5 3 2 2 5 3 2 4 3 4 7 6 7 7 4 6 6 6 4 4 3 6 7 9 11 14
8 7 9 6 2 1 6 1 11 9 23 35 27 17 15 11 15 15 11 9 10 10 6 6 3 4 1 2 1 1 4 4 5 7 6 5 7 3 5 5 5 5 3 4 5 6 10 11 12
4 2 3 4 3 4 3 5 8 14 21 13 11 21 8 6 8 8 13 12 12 8 6 4 6 6 5 2 3 1 2 5 5 5 5 5 7 3 5 4 4 4 3 4 4 5 7 9 11
2 3 7 1 11 7 6 3 11 18 25 20 20 12 10 7 7 11 15 14 11 7 5 5 6 6 5 3 4 3 2 3 4 3 2 2 3 2 4 2 2 3 4 4 4 3 4 8 11
3 6 2 4 10 5 5 14 23 14 11 15 11 9 9 15 15 17 15 11 7 6 6 4 7 7 6 7 6 3 1 1 1 2 1 2 2 4 4 3 2 2 3 4 4 5 7 10 14
4 3 3 5 11 4 7 32 29 25 23 19 21 14 6 13 15 15 14 9 7 7 7 7 9 11 9 10 10 8 7 6 6 5 4 3 3 4 4 3 3 2 1 2 4 5 7 11 16
10 1 6 9 8 3 8 29 23 20 21 15 15 7 11 18 14 14 10 7 7 5 5 5 7 10 10 12 13 11 7 6 4 4 3 3 3 4 5 4 3 3 2 3 3 4 7 10 15
19 1 12 6 1 6 17 29 22 18 9 4 7 8 10 20 17 14 10 7 6 5 3 4 6 9 7 9 15 14 11 8 7 5 3 2 4 6 7 5 4 4 3 3 4 5 6 8 12
17 3 6 7 7 4 16 10 23 17 28 21 10 14 28 23 17 13 12 10 7 4 3 3 5 7 9 8 10 13 13 9 9 7 4 5 1 3 6 6 7 5 3 2 3 5 8 10 10
4 3 4 3 4 9 21 22 10 8 17 19 26 26 25 20 18 16 13 11 7 3 2 4 7 8 7 8 8 10 10 11 11 11 8 1 2 4 8 7 9 7 4 2 3 6 7 7 9
5 4 3 10 14 18 12 20 8 24 9 10 22 25 22 18 12 9 7 6 4 2 3 4 6 5 3 2 6 8 5 5 7 11 13 7 2 6 11 7 4 7 8 5 2 2 1 3 4
5 15 12 14 19 13 5 11 18 19 14 21 21 21 20 16 12 10 10 5 4 3 4 5 7 6 7 7 8 9 6 8 7 8 11 9 10 11 11 10 9 9 8 6 5 3 5 5 6
5 8 10 22 26 24 23 17 14 20 21 20 19 19 17 12 14 12 4 4 3 5 6 6 7 8 12 10 10 12 15 13 12 14 16 14 10 11 9 10 11 10 10 10 10 10 9 12 13
14 17 12 14 15 9 15 12 8 12 19 18 18 13 12 11 7 5 5 4 5 7 9 5 8 12 13 14 15 14 15 15 9 8 12 14 13 12 12 16 15 14 15 15 13 15 16 17 15
11 6 6 12 13 9 22 6 5 21 20 19 16 15 8 5 4 6 3 3 4 3 3 3 10 13 11 12 15 16 12 14 14 13 12 16 17 17 19 18 19 19 17 19 19 20 19 20 18
2 0 5 6 11 14 10 4 11 22 23 19 13 13 15 12 8 4 1 3 8 3 5 12 13 11 14 16 17 12 10 11 13 13 15 17 20 21 23 22 20 18 21 25 26 25 21 23 23
2 5 7 4 15 5 6 7 14 21 19 20 21 15 9 8 9 8 3 4 8 9 9 9 12 13 16 16 17 15 13 12 13 14 15 17 21 21 26 26 24 21 24 24 23 27 32 30 28
7 6 8 8 6 7 6 5 8 17 15 19 17 17 17 19 12 5 5 5 4 5 9 11 10 16 18 19 20 19 18 20 21 24 25 28 22 24 29 27 31 28 29 27 26 27 30 31 33
13 10 8 4 2 5 10 9 9 14 11 8 17 17 17 14 4 4 5 4 2 10 10 12 7 5 8 9 11 16 16 15 15 12 15 13 9 13 20 20 22 26 26 33 35 36 36 33 33
6 4 10 3 3 1 12 12 10 13 15 15 16 17 14 9 13 8 3 5 4 3 2 4 8 12 15 18 22 22 21 23 23 23 23 21 19 17 16 12 12 14 17 21 27 30 31 30 28
4 7 5 7 5 2 1 5 9 9 17 16 14 12 9 12 7 8 10 6 6 8 6 8 9 11 15 17 19 23 25 26 28 29 28 29 27 25 25 25 24 24 22 19 20 22 20 20 21
2 5 6 9 5 3 6 3 11 12 8 11 12 14 14 14 10 7 8 8 6 5 5 8 11 13 14 19 22 24 26 27 26 27 28 29 32 34 34 32 30 27 25 26 24 22 22 23 27
3 5 5 4 1 2 5 1 5 15 11 8 17 14 15 12 10 9 6 5 4 8 12 13 15 14 17 22 26 29 29 29 29 29 29 29 30 31 30 31 31 29 27 25 25 25 26 26 23
5 3 1 3 1 3 7 6 4 11 10 10 10 15 15 12 9 7 5 5 8 11 15 17 17 16 19 24 28 30 31 25 22 23 26 28 31 33 32 33 35 36 35 34 32 31 30 27 27
3 3 2 3 2 5 4 6 4 10 13 14 13 17 14 11 9 7 6 8 8 11 12 15 16 18 24 29 30 28 26 19 19 22 24 27 29 29 28 23 22 22 21 22 26 30 35 35 32
6 6 5 5 4 3 7 1 2 11 20 21 18 14 16 15 12 11 10 8 8 10 12 14 17 20 26 29 29 26 20 17 19 21 24 27 29 25 25 24 25 25 27 24 25 25 23 22 28
2 4 8 4 4 3 4 2 10 11 8 15 16 16 15 14 12 10 9 10 10 10 13 14 18 24 31 27 30 21 16 16 19 22 23 25 25 27 27 26 27 25 24 25 22 22 23 22 21
3 2 4 2 2 2 3 3 2 7 7 7 10 12 15 12 9 8 8 9 9 11 12 16 21 26 31 29 25 20 19 15 19 22 27 31 28 25 25 25 21 22 23 21 19 19 20 23 23
1 2 3 6 3 4 0 2 4 8 6 6 8 15 15 12 9 7 8 8 10 11 14 17 24 28 30 24 22 19 18 18 20 24 27 31 26 27 27 26 23 22 23 21 21 21 20 19 18
8 9 5 3 3 2 3 3 3 7 11 6 8 16 14 11 9 8 8 9 11 12 15 20 22 32 31 28 20 20 21 20 22 27 28 31 29 29 28 27 27 26 25 24 22 22 22 21 22
Wind_Direction
280 296 327 316 27 97 269 312 97 57 61 66 68 81 88 61 28 116 139 148 150 134 117 123 135 345 226 174 165 126 112 123 91 81 78 76 84 54 72 67 69 61 73 99 109 129 140 145 132
271 286 316 286 122 338 287 186 81 103 121 88 76 81 56 71 92 119 132 142 140 121 112 130 105 45 57 144 136 103 114 100 91 78 69 78 87 53 64 76 84 89 85 91 108 127 142 155 158
283 253 264 172 208 199 239 65 100 71 75 104 112 62 60 79 117 125 142 142 136 127 100 86 73 39 24 343 353 314 113 110 100 89 87 74 86 50 50 60 83 91 95 98 103 123 130 147 145
307 276 253 176 256 272 131 107 103 75 66 64 100 75 75 40 120 141 141 138 139 118 93 70 56 55 64 38 353 341 238 113 104 118 82 62 88 355 7 34 64 99 109 114 113 108 107 114 130
297 265 268 281 273 242 56 67 101 78 83 61 86 79 83 82 113 129 126 128 128 109 93 52 51 41 49 30 10 1 314 74 9 22 14 10 315 345 358 6 20 64 112 126 129 108 105 118 130
274 252 332 286 306 137 64 78 80 76 79 96 91 101 89 121 121 131 137 123 98 106 88 66 49 43 45 37 33 26 7 18 359 351 356 1 358 355 358 358 5 18 61 113 126 130 126 127 136
227 94 251 271 278 59 59 84 79 72 49 44 123 92 129 143 145 139 128 132 117 120 105 93 56 42 35 34 40 14 4 5 9 355 354 357 19 27 11 358 16 25 62 88 107 129 139 140 144
261 226 293 317 130 128 88 73 82 48 37 83 115 140 159 152 150 139 137 134 132 126 80 60 63 43 26 41 28 29 20 13 6 359 354 39 85 56 19 25 34 31 47 81 102 114 130 141 150
264 24 298 334 20 48 81 95 70 88 72 63 75 132 146 153 148 141 143 140 132 115 37 35 34 20 3 27 30 18 17 11 23 21 45 46 20 9 7 17 17 5 12 51 92 113 120 117 130
154 110 328 358 60 82 70 75 102 91 86 82 89 114 132 142 147 149 151 149 146 130 325 348 354 345 344 8 1 356 351 357 351 352 355 57 2 328 326 322 337 349 342 8 104 105 110 133 120
245 174 85 33 95 85 102 61 68 120 72 126 128 133 136 135 138 158 147 142 146 189 218 279 304 307 268 300 315 300 305 317 317 322 334 315 273 285 284 306 313 326 349 334 243 125 177 178 162
140 71 68 50 105 89 73 94 65 83 112 133 133 139 140 144 164 161 153 171 212 222 269 280 287 282 259 266 226 246 239 263 276 293 285 294 271 240 253 288 291 299 289 322 280 272 269 284 261
110 106 87 90 87 86 89 90 105 93 123 131 134 137 147 158 142 138 152 149 282 288 262 254 279 274 287 290 257 271 247 248 242 261 271 285 295 257 230 252 270 277 274 286 276 291 275 267 276
102 105 113 95 101 116 106 130 82 142 139 145 142 144 147 143 175 214 212 195 284 282 263 288 302 306 282 284 276 277 265 264 260 271 279 279 297 288 276 251 241 250 260 263 263 267 266 262 274
115 113 135 141 141 131 121 66 91 156 164 170 165 146 155 142 190 147 142 358 292 263 169 272 327 354 341 334 318 291 273 264 261 266 275 273 275 280 284 275 267 244 250 245 247 254 252 249 253
122 77 164 202 156 164 156 173 158 174 175 164 152 139 131 116 114 100 344 357 162 138 302 324 327 330 354 357 360 352 322 290 294 296 281 273 281 280 277 277 274 264 250 250 252 261 260 250 250
159 229 220 146 176 150 140 149 173 178 180 160 152 152 160 162 141 120 100 105 28 359 352 354 330 324 335 335 334 333 324 299 299 286 279 269 269 276 271 273 280 274 268 261 260 261 258 256 256
235 219 255 153 211 158 102 126 164 187 177 154 164 166 163 154 157 168 186 267 293 280 322 326 319 318 323 324 324 326 320 313 297 289 290 282 281 291 271 274 272 266 267 261 265 265 268 267 260
242 256 127 164 184 177 154 150 167 146 134 151 156 159 148 154 184 143 174 104 234 297 295 312 292 24 13 0 345 329 326 319 314 308 308 310 322 300 291 285 286 273 286 281 280 276 261 259 259
262 352 146 141 141 74 152 173 171 156 168 182 205 159 140 139 130 141 341 329 282 347 7 301 294 301 300 301 307 310 306 301 302 303 297 287 285 283 279 283 272 271 282 275 272 269 265 257 260
284 357 137 145 164 245 71 152 154 166 187 150 122 127 124 121 99 82 74 39 6 342 335 312 303 307 309 303 297 294 290 289 292 291 290 288 290 287 287 287 282 278 277 279 282 276 270 272 261
53 12 16 134 130 203 155 243 179 175 163 152 157 128 116 107 88 62 31 21 26 45 352 332 331 328 315 308 305 311 312 310 305 300 294 289 286 290 296 298 295 288 283 280 271 268 268 268 268
116 40 13 335 197 98 274 190 229 165 166 152 126 128 109 91 87 64 49 67 32 343 338 336 329 328 310 309 310 309 308 307 302 300 300 298 292 290 288 290 291 292 286 276 271 265 256 255 259
101 54 335 336 23 276 238 170 255 181 168 106 118 121 112 100 80 65 58 6 346 333 324 322 326 316 312 315 314 314 313 314 313 308 306 304 299 295 290 286 286 286 285 283 281 275 269 263 263
80 71 347 353 347 227 250 249 257 144 133 157 135 117 107 97 84 72 29 358 339 332 328 331 328 320 318 321 327 328 327 335 335 333 326 322 320 317 313 314 310 305 305 305 295 286 282 278 275
185 161 163 216 221 239 36 309 146 18 102 107 110 105 100 89 82 62 42 20 358 341 336 327 325 323 321 326 332 326 329 332 325 324 326 322 320 322 315 314 314 306 310 303 302 291 294 287 267
319 203 226 223 331 45 144 135 191 155 115 117 116 101 93 82 68 52 26 13 354 342 335 328 328 330 330 328 327 332 331 327 326 321 326 335 326 321 316 310 307 306 306 308 305 291 289 291 285
198 308 7 12 106 252 258 128 226 163 153 125 108 107 97 85 62 37 14 3 350 344 327 324 327 332 336 322 330 336 336 338 345 342 336 335 329 327 317 319 309 302 305 307 305 302 296 289 286
136 282 145 112 106 158 35 304 221 67 56 97 92 104 98 84 64 46 19 4 356 342 328 331 331 341 337 333 333 335 353 341 341 338 329 329 323 324 317 314 307 300 302 300 301 299 297 296 292
38 42 53 95 228 197 154 228 16 116 110 82 86 95 92 81 64 40 16 352 348 338 335 332 333 346 345 343 342 356 340 333 334 330 330 336 323 321 310 309 306 299 300 296 295 292 291 289 289